TimeCDT,TemperatureF,Dew PointF,Humidity,Sea Level PressureIn,VisibilityMPH,Wind Direction,Wind SpeedMPH,Gust SpeedMPH,PrecipitationIn,Events,Conditions,WindDirDegrees,DateUTC
12:15 AM,33.8,24.8,70,30.04,10.0,Calm,Calm,-,N/A,,Overcast,0,2013-03-24 05:15:00
12:35 AM,33.8,26.6,75,30.04,10.0,Calm,Calm,-,N/A,,Overcast,0,2013-03-24 05:35:00
12:55 AM,33.8,24.8,70,30.03,10.0,Calm,Calm,-,N/A,,Overcast,0,2013-03-24 05:55:00
1:15 AM,33.8,23.0,65,30.03,7.0,NE,6.9,-,N/A,,Overcast,50,2013-03-24 06:15:00
1:35 AM,33.8,24.8,70,30.03,3.0,NE,10.4,-,N/A,Snow,Light Snow,50,2013-03-24 06:35:00
1:55 AM,32.0,24.8,75,30.02,3.0,ENE,8.1,-,N/A,Snow,Light Snow,60,2013-03-24 06:55:00
2:35 AM,30.2,26.6,86,30.01,2.0,Calm,Calm,-,N/A,Snow,Light Snow,0,2013-03-24 07:35:00
2:55 AM,30.2,26.6,86,30.00,4.0,Calm,Calm,-,N/A,Snow,Light Snow,0,2013-03-24 07:55:00
3:15 AM,30.2,26.6,86,29.99,7.0,Calm,Calm,-,N/A,,Overcast,0,2013-03-24 08:15:00
3:35 AM,30.2,26.6,86,29.98,7.0,Calm,Calm,-,N/A,Snow,Light Snow,0,2013-03-24 08:35:00
3:55 AM,30.2,26.6,86,29.99,5.0,Calm,Calm,-,N/A,Snow,Light Snow,0,2013-03-24 08:55:00
4:15 AM,30.2,26.6,86,29.97,5.0,Calm,Calm,-,N/A,Snow,Light Snow,0,2013-03-24 09:15:00
4:35 AM,30.2,26.6,86,29.96,2.5,Calm,Calm,-,N/A,Snow,Light Snow,0,2013-03-24 09:35:00
4:55 AM,30.2,26.6,86,29.95,1.8,NE,4.6,-,N/A,Snow,Light Snow,50,2013-03-24 09:55:00
5:15 AM,30.2,26.6,86,29.96,2.5,NE,4.6,-,N/A,Snow,Light Snow,50,2013-03-24 10:15:00
5:35 AM,30.2,26.6,86,29.95,2.0,NNE,5.8,-,N/A,Snow,Light Snow,30,2013-03-24 10:35:00
5:55 AM,30.2,26.6,86,29.95,2.5,NNE,4.6,-,N/A,Snow,Light Snow,30,2013-03-24 10:55:00
6:15 AM,30.2,26.6,86,29.94,3.0,NNE,3.5,-,N/A,Snow,Light Snow,30,2013-03-24 11:15:00
6:35 AM,30.2,26.6,86,29.95,4.0,NNE,6.9,-,N/A,Snow,Light Snow,30,2013-03-24 11:35:00
6:55 AM,30.2,24.8,80,29.95,4.0,NNE,3.5,-,N/A,Snow,Light Snow,30,2013-03-24 11:55:00
7:15 AM,28.4,24.8,86,29.95,1.8,NNE,3.5,-,N/A,Snow,Light Snow,30,2013-03-24 12:15:00
7:35 AM,28.4,24.8,86,29.94,1.8,NNE,4.6,-,N/A,Snow,Light Snow,20,2013-03-24 12:35:00
7:55 AM,30.2,24.8,80,29.94,2.5,North,3.5,-,N/A,Snow,Light Snow,350,2013-03-24 12:55:00
8:15 AM,30.2,24.8,80,29.92,4.0,North,6.9,-,N/A,Snow,Light Snow,10,2013-03-24 13:15:00
8:35 AM,30.2,24.8,80,29.91,4.0,NNE,8.1,-,N/A,Snow,Light Snow,20,2013-03-24 13:35:00
8:55 AM,30.2,24.8,80,29.90,4.0,NNE,10.4,16.1,N/A,Snow,Light Snow,20,2013-03-24 13:55:00
9:15 AM,30.2,24.8,80,29.89,5.0,NNE,9.2,-,N/A,Snow,Light Snow,30,2013-03-24 14:15:00
9:35 AM,30.2,24.8,80,29.87,7.0,NNE,10.4,16.1,N/A,Snow,Light Snow,20,2013-03-24 14:35:00
9:55 AM,30.2,26.6,86,29.88,5.0,NNE,11.5,16.1,N/A,Snow,Light Snow,20,2013-03-24 14:55:00
10:15 AM,32.0,26.6,80,29.88,5.0,NNE,10.4,17.3,N/A,,Haze,20,2013-03-24 15:15:00
10:35 AM,32.0,26.6,80,29.87,7.0,NNE,12.7,-,N/A,,Overcast,20,2013-03-24 15:35:00
10:55 AM,32.0,26.6,80,29.87,7.0,North,11.5,-,N/A,,Overcast,10,2013-03-24 15:55:00
11:15 AM,32.0,26.6,80,29.87,10.0,NNE,11.5,-,N/A,,Overcast,30,2013-03-24 16:15:00
11:35 AM,33.8,26.6,75,29.87,10.0,NNE,9.2,-,N/A,,Overcast,20,2013-03-24 16:35:00
11:55 AM,33.8,26.6,75,29.88,2.5,NNE,8.1,-,N/A,Snow,Light Snow,30,2013-03-24 16:55:00
12:15 PM,33.8,26.6,75,29.87,1.8,NNE,6.9,-,0.02,Snow,Light Snow,20,2013-03-24 17:15:00
12:35 PM,33.8,26.6,75,29.86,7.0,NNE,9.2,-,0.02,,Overcast,20,2013-03-24 17:35:00
12:55 PM,33.8,26.6,75,29.86,5.0,NNE,9.2,-,0.02,Snow,Light Snow,20,2013-03-24 17:55:00
1:15 PM,33.8,26.6,75,29.85,1.5,NNE,10.4,-,N/A,Snow,Light Snow,20,2013-03-24 18:15:00
1:35 PM,33.8,28.4,81,29.85,2.0,North,9.2,-,N/A,Snow,Light Snow,10,2013-03-24 18:35:00
1:55 PM,33.8,28.4,81,29.84,2.0,North,12.7,16.1,0.01,Snow,Light Snow,10,2013-03-24 18:55:00
2:15 PM,33.8,28.4,81,29.83,4.0,NNE,10.4,-,N/A,Snow,Light Snow,20,2013-03-24 19:15:00
2:35 PM,33.8,28.4,81,29.83,1.8,North,9.2,17.3,N/A,Snow,Light Snow,10,2013-03-24 19:35:00
2:55 PM,33.8,28.4,81,29.82,2.5,North,12.7,-,N/A,Snow,Light Snow,10,2013-03-24 19:55:00
3:15 PM,33.8,28.4,81,29.81,2.5,North,9.2,-,N/A,Snow,Light Snow,10,2013-03-24 20:15:00
3:35 PM,33.8,26.6,75,29.81,7.0,North,10.4,-,N/A,Snow,Light Snow,10,2013-03-24 20:35:00
3:55 PM,33.8,26.6,75,29.81,10.0,North,12.7,18.4,N/A,,Overcast,10,2013-03-24 20:55:00
4:15 PM,33.8,26.6,75,29.81,2.5,North,12.7,20.7,N/A,Snow,Light Snow,10,2013-03-24 21:15:00
4:35 PM,33.8,26.6,75,29.81,5.0,North,10.4,16.1,N/A,Snow,Light Snow,10,2013-03-24 21:35:00
4:55 PM,33.8,26.6,75,29.81,10.0,North,8.1,-,N/A,,Overcast,360,2013-03-24 21:55:00
5:15 PM,33.8,26.6,75,29.82,5.0,North,9.2,-,N/A,Snow,Light Snow,360,2013-03-24 22:15:00
5:35 PM,33.8,26.6,75,29.83,1.8,North,6.9,-,N/A,Snow,Light Snow,10,2013-03-24 22:35:00
5:55 PM,32.0,26.6,80,29.84,2.0,North,6.9,-,N/A,Snow,Light Snow,350,2013-03-24 22:55:00
6:15 PM,32.0,26.6,80,29.84,1.8,North,6.9,-,N/A,Snow,Light Snow,360,2013-03-24 23:15:00
6:35 PM,32.0,26.6,80,29.85,1.8,North,8.1,-,N/A,Snow,Light Snow,350,2013-03-24 23:35:00
6:55 PM,32.0,26.6,80,29.86,1.8,North,9.2,-,N/A,Snow,Light Snow,350,2013-03-24 23:55:00
7:15 PM,32.0,26.6,80,29.86,1.5,NNW,9.2,-,N/A,Snow,Light Snow,340,2013-03-25 00:15:00
7:35 PM,32.0,26.6,80,29.87,3.0,North,9.2,-,N/A,Snow,Light Snow,350,2013-03-25 00:35:00
7:55 PM,30.2,26.6,86,29.87,3.0,North,9.2,-,N/A,,Overcast,350,2013-03-25 00:55:00
8:15 PM,30.2,26.6,86,29.88,3.0,North,6.9,-,N/A,Snow,Light Snow,360,2013-03-25 01:15:00
8:35 PM,30.2,26.6,86,29.88,2.5,North,8.1,-,N/A,Snow,Light Snow,350,2013-03-25 01:35:00
8:55 PM,30.2,26.6,86,29.88,3.0,North,9.2,-,N/A,,Overcast,350,2013-03-25 01:55:00
9:15 PM,30.2,26.6,86,29.88,5.0,North,9.2,17.3,N/A,Snow,Light Snow,350,2013-03-25 02:15:00
9:35 PM,30.2,26.6,86,29.88,10.0,North,12.7,17.3,N/A,,Overcast,350,2013-03-25 02:35:00
9:55 PM,30.2,26.6,86,29.88,10.0,NNW,10.4,-,N/A,Snow,Light Snow,340,2013-03-25 02:55:00
10:15 PM,30.2,26.6,86,29.88,10.0,NNW,11.5,-,N/A,Snow,Light Snow,340,2013-03-25 03:15:00
10:35 PM,30.2,26.6,86,29.88,5.0,NNW,10.4,-,N/A,Snow,Light Snow,340,2013-03-25 03:35:00
10:55 PM,30.2,26.6,86,29.87,10.0,NNW,11.5,-,N/A,,Overcast,340,2013-03-25 03:55:00
11:15 PM,30.2,26.6,86,29.88,10.0,NNW,11.5,-,N/A,,Overcast,340,2013-03-25 04:15:00
11:35 PM,30.2,26.6,86,29.88,10.0,NNW,10.4,-,N/A,,Overcast,330,2013-03-25 04:35:00
11:55 PM,30.2,26.6,86,29.87,10.0,NNW,12.7,-,N/A,,Overcast,330,2013-03-25 04:55:00